Regional Weather Roundup
Issued by NWS

Home | Current Version | Previous Version | Text Only | Print | Product List | Glossary On
Versions: 1 2 3 4 5 6 7 8 9 10 11 12 13 14 15 16 17 18 19 20 21 22 23 24 25 26 27 28 29 30 31 32 33 34 35 36 37 38 39 40 41 42 43 44 45 46 47 48 49 50
000
ASUS45 KCYS 020910
RWRWY

WYOMING REGIONAL WEATHER ROUNDUP
NATIONAL WEATHER SERVICE CHEYENNE WY
300 AM MDT TUE SEP 02 2014

NOTE:  "FAIR" INDICATES FEW OR NO CLOUDS BELOW 12,000 FEET
WITH NO SIGNIFICANT WEATHER AND/OR OBSTRUCTIONS TO VISIBILITY.

WYZ001-021000-
YELLOWSTONE NATIONAL PARK

CITY           SKY/WX    TMP DP  RH WIND       PRES   REMARKS
LK YELLOWSTONE   N/A     31  30  96 CALM      30.21F
W YELLOWSTONE  NOT AVBL

$$
WYZ002>013-054>058-071-098>099-021000-
NORTHERN WYOMING

CITY           SKY/WX    TMP DP  RH WIND       PRES   REMARKS
JACKSON        CLEAR     37  36  93 N7        30.17S WCI  32
CODY             N/A    N/A N/A N/A MISG        N/A
GREYBULL       CLEAR     51  45  79 SE5       29.98S
WORLAND        CLEAR     48  42  80 S8        29.99S
SHERIDAN       CLEAR     50  42  74 S8        29.96F
BUFFALO        CLEAR     44  38  79 W6        30.02F
GILLETTE       CLEAR     50  43  77 S12       30.02F
HULETT         FAIR      50  41  71 MISG      30.01
NEWCASTLE      FAIR      43  37  81 NE5       30.06

$$
WYZ014>020-022>026-101>103-021000-
CENTRAL WYOMING

CITY           SKY/WX    TMP DP  RH WIND       PRES   REMARKS
BIG PINEY      CLEAR     36  32  85 E6        30.21F WCI  31
PINEDALE       SUNNY     32  32 100 NW6       30.22S WCI  26
DUBOIS         FAIR      41  30  65 NW14      30.15S
LANDER         CLEAR     48  32  53 CALM      30.06F
RIVERTON       CLEAR     50  30  46 SW9       30.08S
CASPER         CLEAR     38  36  92 N6        30.07S WCI  33
DOUGLAS        CLEAR     45  42  89 CALM      30.07S

$$
WYZ021-027>030-104>119-021000-
SOUTHERN WYOMING

CITY           SKY/WX    TMP DP  RH WIND       PRES   REMARKS
EVANSTON       CLEAR     47  30  51 S9        30.20F
KEMMERER       SUNNY     41  34  75 NW6       30.21F
FORT BRIDGER   FAIR      48  32  53 SW7       30.22F
ROCK SPRINGS   CLEAR     49  31  49 SW8       30.18F
DIXON          FAIR      44  35  70 CALM      30.23S
RAWLINS        CLEAR     49  32  52 W7        30.18S
SARATOGA       FAIR      41  34  75 SE8       30.21F
LARAMIE        CLEAR     41  34  76 SE6       30.19F
CHEYENNE       CLEAR     44  40  85 W6        30.16S
TORRINGTON     CLEAR     45  43  93 SE6       30.07S
PINE BLUFFS    FAIR      41  41 100 CALM      30.14R

$$


USA.gov is the U.S. government's official web portal to all federal, state and local government web resources and services.